{"data":{"norad_id":59845,"epoch":"2026-09-21T08:45:49.252032Z","epoch_age_seconds":99713,"freshness":"FRESH","line1":"1 59845U 24097L   26264.36515338 -.00001164  00000+0 -32805-4 0  9992","line2":"2 59845  42.9994 242.2901 0001026 273.8863  86.1871 15.27576479131926","mean_motion":15.27576479,"eccentricity":0.0001026,"inclination_deg":42.9994,"raan_deg":242.2901,"arg_perigee_deg":273.8863,"mean_anomaly_deg":86.1871,"bstar":-3.2805e-5,"rev_number":13192,"period_min":94.266965994571,"perigee_km":482.3556804254,"apogee_km":483.76359797576,"semimajor_km":6861.1966392006,"source":"CELESTRAK","updated_at":"2026-09-22T09:00:49.097145Z"}}